{"data":{"norad_id":69132,"epoch":"2026-09-18T19:06:08.923104Z","epoch_age_seconds":170413,"freshness":"FRESH","line1":"1 69132U 26110J   26261.79593661  .00013692  00000+0  42559-3 0  9992","line2":"2 69132  97.2870  96.8582 0002421  95.8271 264.3248 15.33448043 19953","mean_motion":15.33448043,"eccentricity":0.0002421,"inclination_deg":97.287,"raan_deg":96.8582,"arg_perigee_deg":95.8271,"mean_anomaly_deg":264.3248,"bstar":0.00042559,"rev_number":1995,"period_min":93.906018307788,"perigee_km":463.87726788772,"apogee_km":467.19097344435,"semimajor_km":6843.671120666,"source":"CELESTRAK","updated_at":"2026-09-20T09:00:44.085795Z"}}